owner,sensor,date,latitude,longitude,vertical_datum,mass_concentration_of_oxygen_in_sea_water,qcFlag 
DISL,ioos:station:DISL:MHPA:1,2013-02-01T00:00:00Z,30.6671,-87.9365,3.72,8.82,1111122 
DISL,ioos:station:DISL:MHPA:1,2013-02-01T00:30:00Z,30.6671,-87.9365,3.687,8.79,1111122 
DISL,ioos:station:DISL:MHPA:1,2013-02-01T01:00:00Z,30.6671,-87.9365,3.635,8.87,1111122 
DISL,ioos:station:DISL:MHPA:1,2013-02-01T01:30:00Z,30.6671,-87.9365,3.569,8.9,1111122 
DISL,ioos:station:DISL:MHPA:1,2013-02-01T02:00:00Z,30.6671,-87.9365,3.476,8.83,1111122 
DISL,ioos:station:DISL:MHPA:1,2013-02-01T02:30:00Z,30.6671,-87.9365,3.391,8.97,1111122 
DISL,ioos:station:DISL:MHPA:1,2013-02-01T03:00:00Z,30.6671,-87.9365,3.366,9.23,1111122 
DISL,ioos:station:DISL:MHPA:1,2013-02-01T03:30:00Z,30.6671,-87.9365,3.327,9.09,1111122 
DISL,ioos:station:DISL:MHPA:1,2013-02-01T04:00:00Z,30.6671,-87.9365,3.28,8.92,1111122 
DISL,ioos:station:DISL:MHPA:1,2013-02-01T04:30:00Z,30.6671,-87.9365,3.256,8.86,1111122 
DISL,ioos:station:DISL:MHPA:1,2013-02-01T05:00:00Z,30.6671,-87.9365,3.255,8.81,1111122 
DISL,ioos:station:DISL:MHPA:1,2013-02-01T05:30:00Z,30.6671,-87.9365,3.207,8.72,1111122 
DISL,ioos:station:DISL:MHPA:1,2013-02-01T06:00:00Z,30.6671,-87.9365,3.179,8.69,1111122 
DISL,ioos:station:DISL:MHPA:1,2013-02-01T06:30:00Z,30.6671,-87.9365,3.206,8.78,1111122 
DISL,ioos:station:DISL:MHPA:1,2013-02-01T07:00:00Z,30.6671,-87.9365,3.221,8.87,1111122 
DISL,ioos:station:DISL:MHPA:1,2013-02-01T07:30:00Z,30.6671,-87.9365,3.204,8.68,1111122 
DISL,ioos:station:DISL:MHPA:1,2013-02-01T08:00:00Z,30.6671,-87.9365,3.208,8.74,1111122 
DISL,ioos:station:DISL:MHPA:1,2013-02-01T08:30:00Z,30.6671,-87.9365,3.191,8.81,1111122 
DISL,ioos:station:DISL:MHPA:1,2013-02-01T09:00:00Z,30.6671,-87.9365,3.153,8.6,1111122 
DISL,ioos:station:DISL:MHPA:1,2013-02-01T09:30:00Z,30.6671,-87.9365,3.082,8.68,1111122 
DISL,ioos:station:DISL:MHPA:1,2013-02-01T10:00:00Z,30.6671,-87.9365,3.039,8.81,1111122 
DISL,ioos:station:DISL:MHPA:1,2013-02-01T10:30:00Z,30.6671,-87.9365,3.022,8.78,1111122 
DISL,ioos:station:DISL:MHPA:1,2013-02-01T11:00:00Z,30.6671,-87.9365,3.002,8.65,1111122 
DISL,ioos:station:DISL:MHPA:1,2013-02-01T11:30:00Z,30.6671,-87.9365,2.965,8.47,1111122 
DISL,ioos:station:DISL:MHPA:1,2013-02-01T12:00:00Z,30.6671,-87.9365,2.962,8.71,1111122 
DISL,ioos:station:DISL:MHPA:1,2013-02-01T12:30:00Z,30.6671,-87.9365,2.942,8.72,1111122 
DISL,ioos:station:DISL:MHPA:1,2013-02-01T13:00:00Z,30.6671,-87.9365,2.895,8.38,1111122 
DISL,ioos:station:DISL:MHPA:1,2013-02-01T13:30:00Z,30.6671,-87.9365,2.84,8.78,1111122 
DISL,ioos:station:DISL:MHPA:1,2013-02-01T14:00:00Z,30.6671,-87.9365,2.788,8.81,1111122 
DISL,ioos:station:DISL:MHPA:1,2013-02-01T14:30:00Z,30.6671,-87.9365,2.737,8.74,1111122 
DISL,ioos:station:DISL:MHPA:1,2013-02-01T15:00:00Z,30.6671,-87.9365,2.693,8.75,1111122 
DISL,ioos:station:DISL:MHPA:1,2013-02-01T15:30:00Z,30.6671,-87.9365,2.65,8.75,1111122 
DISL,ioos:station:DISL:MHPA:1,2013-02-01T16:00:00Z,30.6671,-87.9365,2.614,8.51,1111122 
DISL,ioos:station:DISL:MHPA:1,2013-02-01T16:30:00Z,30.6671,-87.9365,2.591,8.55,1111122 
DISL,ioos:station:DISL:MHPA:1,2013-02-01T17:00:00Z,30.6671,-87.9365,2.579,8.49,1111122 
DISL,ioos:station:DISL:MHPA:1,2013-02-01T17:30:00Z,30.6671,-87.9365,2.554,8.68,1111122 
DISL,ioos:station:DISL:MHPA:1,2013-02-01T18:00:00Z,30.6671,-87.9365,2.533,8.74,1111122 
DISL,ioos:station:DISL:MHPA:1,2013-02-01T18:30:00Z,30.6671,-87.9365,2.52,8.6,1111122 
DISL,ioos:station:DISL:MHPA:1,2013-02-01T19:00:00Z,30.6671,-87.9365,2.504,8.73,1111122 
DISL,ioos:station:DISL:MHPA:1,2013-02-01T19:30:00Z,30.6671,-87.9365,2.502,8.83,1111122 
DISL,ioos:station:DISL:MHPA:1,2013-02-01T20:00:00Z,30.6671,-87.9365,2.528,8.91,1111122 
DISL,ioos:station:DISL:MHPA:1,2013-02-01T20:30:00Z,30.6671,-87.9365,2.579,8.73,1111122 
DISL,ioos:station:DISL:MHPA:1,2013-02-01T21:00:00Z,30.6671,-87.9365,2.64,8.75,1111122 
DISL,ioos:station:DISL:MHPA:1,2013-02-01T21:30:00Z,30.6671,-87.9365,2.736,8.74,1111122 
DISL,ioos:station:DISL:MHPA:1,2013-02-01T22:00:00Z,30.6671,-87.9365,2.867,8.87,1111122 
DISL,ioos:station:DISL:MHPA:1,2013-02-01T22:30:00Z,30.6671,-87.9365,2.969,8.94,1111122 
DISL,ioos:station:DISL:MHPA:1,2013-02-01T23:00:00Z,30.6671,-87.9365,3.018,9.1,1111122 
DISL,ioos:station:DISL:MHPA:1,2013-02-01T23:30:00Z,30.6671,-87.9365,3.052,9.36,1111122 
DISL,ioos:station:DISL:MHPA:1,2013-02-02T00:00:00Z,30.6671,-87.9365,3.119,9.27,1111122 
DISL,ioos:station:DISL:MHPA:1,2013-02-02T00:30:00Z,30.6671,-87.9365,3.134,8.97,1111122 
DISL,ioos:station:DISL:MHPA:1,2013-02-02T01:00:00Z,30.6671,-87.9365,3.12,8.83,1111122 
DISL,ioos:station:DISL:MHPA:1,2013-02-02T01:30:00Z,30.6671,-87.9365,3.112,8.98,1111122 
DISL,ioos:station:DISL:MHPA:1,2013-02-02T02:00:00Z,30.6671,-87.9365,3.084,9.11,1111122 
DISL,ioos:station:DISL:MHPA:1,2013-02-02T02:30:00Z,30.6671,-87.9365,3.04,9.03,1111122 
DISL,ioos:station:DISL:MHPA:1,2013-02-02T03:00:00Z,30.6671,-87.9365,2.983,8.9,1111122 
DISL,ioos:station:DISL:MHPA:1,2013-02-02T03:30:00Z,30.6671,-87.9365,2.932,8.89,1111122 
DISL,ioos:station:DISL:MHPA:1,2013-02-02T04:00:00Z,30.6671,-87.9365,2.878,8.85,1111122 
DISL,ioos:station:DISL:MHPA:1,2013-02-02T04:30:00Z,30.6671,-87.9365,2.835,8.86,1111122 
DISL,ioos:station:DISL:MHPA:1,2013-02-02T05:00:00Z,30.6671,-87.9365,2.808,8.84,1111122 
DISL,ioos:station:DISL:MHPA:1,2013-02-02T05:30:00Z,30.6671,-87.9365,2.782,8.76,1111122 
DISL,ioos:station:DISL:MHPA:1,2013-02-02T06:00:00Z,30.6671,-87.9365,2.747,8.69,1111122 
DISL,ioos:station:DISL:MHPA:1,2013-02-02T06:30:00Z,30.6671,-87.9365,2.72,8.64,1111122 
DISL,ioos:station:DISL:MHPA:1,2013-02-02T07:00:00Z,30.6671,-87.9365,2.698,8.49,1111122 
DISL,ioos:station:DISL:MHPA:1,2013-02-02T07:30:00Z,30.6671,-87.9365,2.672,8.7,1111122 
DISL,ioos:station:DISL:MHPA:1,2013-02-02T08:00:00Z,30.6671,-87.9365,2.668,8.86,1111122 
DISL,ioos:station:DISL:MHPA:1,2013-02-02T08:30:00Z,30.6671,-87.9365,2.662,8.95,1111122 
DISL,ioos:station:DISL:MHPA:1,2013-02-02T09:00:00Z,30.6671,-87.9365,2.645,9.04,1111122 
DISL,ioos:station:DISL:MHPA:1,2013-02-02T09:30:00Z,30.6671,-87.9365,2.628,8.92,1111122 
DISL,ioos:station:DISL:MHPA:1,2013-02-02T10:00:00Z,30.6671,-87.9365,2.631,8.89,1111122 
DISL,ioos:station:DISL:MHPA:1,2013-02-02T10:30:00Z,30.6671,-87.9365,2.654,8.94,1111122 
DISL,ioos:station:DISL:MHPA:1,2013-02-02T11:00:00Z,30.6671,-87.9365,2.686,9.0,1111122 
DISL,ioos:station:DISL:MHPA:1,2013-02-02T11:30:00Z,30.6671,-87.9365,2.711,8.93,1111122 
DISL,ioos:station:DISL:MHPA:1,2013-02-02T12:00:00Z,30.6671,-87.9365,2.718,9.0,1111122 
DISL,ioos:station:DISL:MHPA:1,2013-02-02T12:30:00Z,30.6671,-87.9365,2.725,8.91,1111122 
DISL,ioos:station:DISL:MHPA:1,2013-02-02T13:00:00Z,30.6671,-87.9365,2.779,9.0,1111122 
DISL,ioos:station:DISL:MHPA:1,2013-02-02T13:30:00Z,30.6671,-87.9365,2.816,9.04,1111122 
DISL,ioos:station:DISL:MHPA:1,2013-02-02T14:00:00Z,30.6671,-87.9365,2.841,9.01,1111122 
DISL,ioos:station:DISL:MHPA:1,2013-02-02T14:30:00Z,30.6671,-87.9365,2.857,9.05,1111122 
DISL,ioos:station:DISL:MHPA:1,2013-02-02T15:00:00Z,30.6671,-87.9365,2.893,9.04,1111122 
DISL,ioos:station:DISL:MHPA:1,2013-02-02T15:30:00Z,30.6671,-87.9365,2.929,9.05,1111122 
DISL,ioos:station:DISL:MHPA:1,2013-02-02T16:00:00Z,30.6671,-87.9365,3.026,9.16,1111122 
DISL,ioos:station:DISL:MHPA:1,2013-02-02T16:30:00Z,30.6671,-87.9365,3.129,8.97,1111122 
DISL,ioos:station:DISL:MHPA:1,2013-02-02T17:00:00Z,30.6671,-87.9365,3.196,9.16,1111122 
DISL,ioos:station:DISL:MHPA:1,2013-02-02T17:30:00Z,30.6671,-87.9365,3.278,9.02,1111122 
DISL,ioos:station:DISL:MHPA:1,2013-02-02T18:00:00Z,30.6671,-87.9365,3.401,9.19,1111122 
DISL,ioos:station:DISL:MHPA:1,2013-02-02T18:30:00Z,30.6671,-87.9365,3.538,9.08,1111122 
DISL,ioos:station:DISL:MHPA:1,2013-02-02T19:00:00Z,30.6671,-87.9365,3.729,9.1,1111122 
DISL,ioos:station:DISL:MHPA:1,2013-02-02T19:30:00Z,30.6671,-87.9365,3.908,9.13,1111122 
DISL,ioos:station:DISL:MHPA:1,2013-02-02T20:00:00Z,30.6671,-87.9365,4.047,9.5,1111122 
DISL,ioos:station:DISL:MHPA:1,2013-02-02T20:30:00Z,30.6671,-87.9365,4.125,9.37,1111122 
DISL,ioos:station:DISL:MHPA:1,2013-02-02T21:00:00Z,30.6671,-87.9365,4.209,9.48,1111122 
DISL,ioos:station:DISL:MHPA:1,2013-02-02T21:30:00Z,30.6671,-87.9365,4.282,9.49,1111122 
DISL,ioos:station:DISL:MHPA:1,2013-02-02T22:00:00Z,30.6671,-87.9365,4.363,9.55,1111122 
DISL,ioos:station:DISL:MHPA:1,2013-02-02T22:30:00Z,30.6671,-87.9365,4.38,9.58,1111122 
DISL,ioos:station:DISL:MHPA:1,2013-02-02T23:00:00Z,30.6671,-87.9365,4.379,9.57,1111122 
DISL,ioos:station:DISL:MHPA:1,2013-02-02T23:30:00Z,30.6671,-87.9365,4.354,9.52,1111122 
DISL,ioos:station:DISL:MHPA:1,2013-02-03T00:00:00Z,30.6671,-87.9365,4.291,9.56,1111122 
DISL,ioos:station:DISL:MHPA:1,2013-02-03T00:30:00Z,30.6671,-87.9365,4.242,9.86,1111122 
DISL,ioos:station:DISL:MHPA:1,2013-02-03T01:00:00Z,30.6671,-87.9365,4.142,9.85,1111122 
DISL,ioos:station:DISL:MHPA:1,2013-02-03T01:30:00Z,30.6671,-87.9365,4.015,9.66,1111122 
DISL,ioos:station:DISL:MHPA:1,2013-02-03T02:00:00Z,30.6671,-87.9365,3.906,9.55,1111122 
DISL,ioos:station:DISL:MHPA:1,2013-02-03T02:30:00Z,30.6671,-87.9365,3.768,9.78,1111122 
DISL,ioos:station:DISL:MHPA:1,2013-02-03T03:00:00Z,30.6671,-87.9365,3.65,9.28,1111122 
DISL,ioos:station:DISL:MHPA:1,2013-02-03T03:30:00Z,30.6671,-87.9365,3.549,9.21,1111122 
DISL,ioos:station:DISL:MHPA:1,2013-02-03T04:00:00Z,30.6671,-87.9365,3.449,9.5,1111122 
DISL,ioos:station:DISL:MHPA:1,2013-02-03T04:30:00Z,30.6671,-87.9365,3.355,9.62,1111122 
DISL,ioos:station:DISL:MHPA:1,2013-02-03T05:00:00Z,30.6671,-87.9365,3.265,9.67,1111122 
DISL,ioos:station:DISL:MHPA:1,2013-02-03T05:30:00Z,30.6671,-87.9365,3.188,9.49,1111122 
DISL,ioos:station:DISL:MHPA:1,2013-02-03T06:00:00Z,30.6671,-87.9365,3.122,9.41,1111122 
DISL,ioos:station:DISL:MHPA:1,2013-02-03T06:30:00Z,30.6671,-87.9365,3.055,9.4,1111122 
DISL,ioos:station:DISL:MHPA:1,2013-02-03T07:00:00Z,30.6671,-87.9365,2.992,9.49,1111122 
DISL,ioos:station:DISL:MHPA:1,2013-02-03T07:30:00Z,30.6671,-87.9365,2.944,9.42,1111122 
DISL,ioos:station:DISL:MHPA:1,2013-02-03T08:00:00Z,30.6671,-87.9365,2.884,9.35,1111122 
DISL,ioos:station:DISL:MHPA:1,2013-02-03T08:30:00Z,30.6671,-87.9365,2.826,9.48,1111122 
DISL,ioos:station:DISL:MHPA:1,2013-02-03T09:00:00Z,30.6671,-87.9365,2.783,9.37,1111122 
DISL,ioos:station:DISL:MHPA:1,2013-02-03T09:30:00Z,30.6671,-87.9365,2.732,9.49,1111122 
DISL,ioos:station:DISL:MHPA:1,2013-02-03T10:00:00Z,30.6671,-87.9365,2.683,9.61,1111122 
DISL,ioos:station:DISL:MHPA:1,2013-02-03T10:30:00Z,30.6671,-87.9365,2.656,9.63,1111122 
DISL,ioos:station:DISL:MHPA:1,2013-02-03T11:00:00Z,30.6671,-87.9365,2.65,9.55,1111122 
DISL,ioos:station:DISL:MHPA:1,2013-02-03T11:30:00Z,30.6671,-87.9365,2.662,9.58,1111122 
DISL,ioos:station:DISL:MHPA:1,2013-02-03T12:00:00Z,30.6671,-87.9365,2.657,9.36,1111122 
DISL,ioos:station:DISL:MHPA:1,2013-02-03T12:30:00Z,30.6671,-87.9365,2.632,9.24,1111122 
DISL,ioos:station:DISL:MHPA:1,2013-02-03T13:00:00Z,30.6671,-87.9365,2.619,9.14,1111122 
DISL,ioos:station:DISL:MHPA:1,2013-02-03T13:30:00Z,30.6671,-87.9365,2.618,9.16,1111122 
DISL,ioos:station:DISL:MHPA:1,2013-02-03T14:00:00Z,30.6671,-87.9365,2.6,9.24,1111122 
DISL,ioos:station:DISL:MHPA:1,2013-02-03T14:30:00Z,30.6671,-87.9365,2.586,9.27,1111122 
DISL,ioos:station:DISL:MHPA:1,2013-02-03T15:00:00Z,30.6671,-87.9365,2.596,9.28,1111122 
DISL,ioos:station:DISL:MHPA:1,2013-02-03T15:30:00Z,30.6671,-87.9365,2.662,9.26,1111122 
DISL,ioos:station:DISL:MHPA:1,2013-02-03T16:00:00Z,30.6671,-87.9365,2.784,9.2,1111122 
DISL,ioos:station:DISL:MHPA:1,2013-02-03T16:30:00Z,30.6671,-87.9365,2.945,9.51,1111122 
DISL,ioos:station:DISL:MHPA:1,2013-02-03T17:00:00Z,30.6671,-87.9365,3.123,9.35,1111122 
DISL,ioos:station:DISL:MHPA:1,2013-02-03T17:30:00Z,30.6671,-87.9365,3.263,9.63,1111122 
DISL,ioos:station:DISL:MHPA:1,2013-02-03T18:00:00Z,30.6671,-87.9365,3.428,9.59,1111122 
DISL,ioos:station:DISL:MHPA:1,2013-02-03T18:30:00Z,30.6671,-87.9365,3.541,9.7,1111122 
DISL,ioos:station:DISL:MHPA:1,2013-02-03T19:00:00Z,30.6671,-87.9365,3.667,9.83,1111122 
DISL,ioos:station:DISL:MHPA:1,2013-02-03T19:30:00Z,30.6671,-87.9365,3.772,9.7,1111122 
DISL,ioos:station:DISL:MHPA:1,2013-02-03T20:00:00Z,30.6671,-87.9365,3.908,9.51,1111122 
DISL,ioos:station:DISL:MHPA:1,2013-02-03T20:30:00Z,30.6671,-87.9365,4.078,9.89,1111122 
DISL,ioos:station:DISL:MHPA:1,2013-02-03T21:00:00Z,30.6671,-87.9365,4.201,9.62,1111122 
DISL,ioos:station:DISL:MHPA:1,2013-02-03T21:30:00Z,30.6671,-87.9365,4.317,9.78,1111122 
DISL,ioos:station:DISL:MHPA:1,2013-02-03T22:00:00Z,30.6671,-87.9365,4.362,9.98,1111122 
DISL,ioos:station:DISL:MHPA:1,2013-02-03T22:30:00Z,30.6671,-87.9365,4.383,9.88,1111122 
DISL,ioos:station:DISL:MHPA:1,2013-02-03T23:00:00Z,30.6671,-87.9365,4.38,9.82,1111122 
DISL,ioos:station:DISL:MHPA:1,2013-02-03T23:30:00Z,30.6671,-87.9365,4.369,9.79,1111122 
DISL,ioos:station:DISL:MHPA:1,2013-02-04T00:00:00Z,30.6671,-87.9365,4.337,9.69,1111122 
DISL,ioos:station:DISL:MHPA:1,2013-02-04T00:30:00Z,30.6671,-87.9365,4.287,9.96,1111122 
DISL,ioos:station:DISL:MHPA:1,2013-02-04T01:00:00Z,30.6671,-87.9365,4.169,9.99,1111122 
DISL,ioos:station:DISL:MHPA:1,2013-02-04T01:30:00Z,30.6671,-87.9365,4.098,9.82,1111122 
DISL,ioos:station:DISL:MHPA:1,2013-02-04T02:00:00Z,30.6671,-87.9365,4.035,9.8,1111122 
DISL,ioos:station:DISL:MHPA:1,2013-02-04T02:30:00Z,30.6671,-87.9365,3.922,9.89,1111122 
DISL,ioos:station:DISL:MHPA:1,2013-02-04T03:00:00Z,30.6671,-87.9365,3.819,9.47,1111122 
DISL,ioos:station:DISL:MHPA:1,2013-02-04T03:30:00Z,30.6671,-87.9365,3.703,9.54,1111122 
DISL,ioos:station:DISL:MHPA:1,2013-02-04T04:00:00Z,30.6671,-87.9365,3.595,9.28,1111122 
DISL,ioos:station:DISL:MHPA:1,2013-02-04T04:30:00Z,30.6671,-87.9365,3.487,9.4,1111122 
DISL,ioos:station:DISL:MHPA:1,2013-02-04T05:00:00Z,30.6671,-87.9365,3.381,9.49,1111122 
DISL,ioos:station:DISL:MHPA:1,2013-02-04T05:30:00Z,30.6671,-87.9365,3.279,9.39,1111122 
DISL,ioos:station:DISL:MHPA:1,2013-02-04T06:00:00Z,30.6671,-87.9365,3.195,9.47,1111122 
DISL,ioos:station:DISL:MHPA:1,2013-02-04T06:30:00Z,30.6671,-87.9365,3.105,9.71,1111122 
DISL,ioos:station:DISL:MHPA:1,2013-02-04T07:00:00Z,30.6671,-87.9365,3.012,9.83,1111122 
DISL,ioos:station:DISL:MHPA:1,2013-02-04T07:30:00Z,30.6671,-87.9365,2.926,9.74,1111122 
DISL,ioos:station:DISL:MHPA:1,2013-02-04T08:00:00Z,30.6671,-87.9365,2.854,9.87,1111122 
DISL,ioos:station:DISL:MHPA:1,2013-02-04T08:30:00Z,30.6671,-87.9365,2.789,9.38,1111122 
DISL,ioos:station:DISL:MHPA:1,2013-02-04T09:00:00Z,30.6671,-87.9365,2.734,9.45,1111122 
DISL,ioos:station:DISL:MHPA:1,2013-02-04T09:30:00Z,30.6671,-87.9365,2.692,9.6,1111122 
DISL,ioos:station:DISL:MHPA:1,2013-02-04T10:00:00Z,30.6671,-87.9365,2.656,9.49,1111122 
DISL,ioos:station:DISL:MHPA:1,2013-02-04T10:30:00Z,30.6671,-87.9365,2.626,9.43,1111122 
DISL,ioos:station:DISL:MHPA:1,2013-02-04T11:00:00Z,30.6671,-87.9365,2.595,9.38,1111122 
DISL,ioos:station:DISL:MHPA:1,2013-02-04T11:30:00Z,30.6671,-87.9365,2.567,9.25,1111122 
DISL,ioos:station:DISL:MHPA:1,2013-02-04T12:00:00Z,30.6671,-87.9365,2.545,9.11,1111122 
DISL,ioos:station:DISL:MHPA:1,2013-02-04T12:30:00Z,30.6671,-87.9365,2.529,9.1,1111122 
DISL,ioos:station:DISL:MHPA:1,2013-02-04T13:00:00Z,30.6671,-87.9365,2.525,9.06,1111122 
DISL,ioos:station:DISL:MHPA:1,2013-02-04T13:30:00Z,30.6671,-87.9365,2.551,9.18,1111122 
DISL,ioos:station:DISL:MHPA:1,2013-02-04T14:00:00Z,30.6671,-87.9365,2.598,9.19,1111122 
DISL,ioos:station:DISL:MHPA:1,2013-02-04T14:30:00Z,30.6671,-87.9365,2.676,9.13,1111122 
DISL,ioos:station:DISL:MHPA:1,2013-02-04T15:00:00Z,30.6671,-87.9365,2.816,9.28,1111122 
DISL,ioos:station:DISL:MHPA:1,2013-02-04T15:30:00Z,30.6671,-87.9365,2.978,9.31,1111122 
DISL,ioos:station:DISL:MHPA:1,2013-02-04T16:00:00Z,30.6671,-87.9365,3.131,9.24,1111122 
DISL,ioos:station:DISL:MHPA:1,2013-02-04T16:30:00Z,30.6671,-87.9365,3.254,9.16,1111122 
DISL,ioos:station:DISL:MHPA:1,2013-02-04T17:00:00Z,30.6671,-87.9365,3.322,9.1,1111122 
DISL,ioos:station:DISL:MHPA:1,2013-02-04T17:30:00Z,30.6671,-87.9365,3.437,8.69,1111122 
DISL,ioos:station:DISL:MHPA:1,2013-02-04T18:00:00Z,30.6671,-87.9365,3.527,9.26,1111122 
DISL,ioos:station:DISL:MHPA:1,2013-02-04T18:30:00Z,30.6671,-87.9365,3.643,9.28,1111122 
DISL,ioos:station:DISL:MHPA:1,2013-02-04T19:00:00Z,30.6671,-87.9365,3.742,9.24,1111122 
DISL,ioos:station:DISL:MHPA:1,2013-02-04T19:30:00Z,30.6671,-87.9365,3.85,9.28,1111122 
DISL,ioos:station:DISL:MHPA:1,2013-02-04T20:00:00Z,30.6671,-87.9365,3.962,9.2,1111122 
DISL,ioos:station:DISL:MHPA:1,2013-02-04T20:30:00Z,30.6671,-87.9365,4.063,9.26,1111122 
DISL,ioos:station:DISL:MHPA:1,2013-02-04T21:00:00Z,30.6671,-87.9365,4.154,9.66,1111122 
DISL,ioos:station:DISL:MHPA:1,2013-02-04T21:30:00Z,30.6671,-87.9365,4.194,9.53,1111122 
DISL,ioos:station:DISL:MHPA:1,2013-02-04T22:00:00Z,30.6671,-87.9365,4.237,9.49,1111122 
DISL,ioos:station:DISL:MHPA:1,2013-02-04T22:30:00Z,30.6671,-87.9365,4.294,9.31,1111122 
DISL,ioos:station:DISL:MHPA:1,2013-02-04T23:00:00Z,30.6671,-87.9365,4.377,9.26,1111122 
DISL,ioos:station:DISL:MHPA:1,2013-02-04T23:30:00Z,30.6671,-87.9365,4.377,9.17,1111122 
DISL,ioos:station:DISL:MHPA:1,2013-02-05T00:00:00Z,30.6671,-87.9365,4.389,9.09,1111122 
DISL,ioos:station:DISL:MHPA:1,2013-02-05T00:30:00Z,30.6671,-87.9365,4.328,9.22,1111122 
DISL,ioos:station:DISL:MHPA:1,2013-02-05T01:00:00Z,30.6671,-87.9365,4.398,9.16,1111122 
DISL,ioos:station:DISL:MHPA:1,2013-02-05T01:30:00Z,30.6671,-87.9365,4.364,9.2,1111122 
DISL,ioos:station:DISL:MHPA:1,2013-02-05T02:00:00Z,30.6671,-87.9365,4.252,9.49,1111122 
DISL,ioos:station:DISL:MHPA:1,2013-02-05T02:30:00Z,30.6671,-87.9365,4.242,9.38,1111122 
DISL,ioos:station:DISL:MHPA:1,2013-02-05T03:00:00Z,30.6671,-87.9365,4.201,9.47,1111122 
DISL,ioos:station:DISL:MHPA:1,2013-02-05T03:30:00Z,30.6671,-87.9365,4.076,9.5,1111122 
DISL,ioos:station:DISL:MHPA:1,2013-02-05T04:00:00Z,30.6671,-87.9365,4.004,9.43,1111122 
DISL,ioos:station:DISL:MHPA:1,2013-02-05T04:30:00Z,30.6671,-87.9365,3.918,9.51,1111122 
DISL,ioos:station:DISL:MHPA:1,2013-02-05T05:00:00Z,30.6671,-87.9365,3.8,9.44,1111122 
DISL,ioos:station:DISL:MHPA:1,2013-02-05T05:30:00Z,30.6671,-87.9365,3.677,9.44,1111122 
DISL,ioos:station:DISL:MHPA:1,2013-02-05T06:00:00Z,30.6671,-87.9365,3.587,9.37,1111122 
DISL,ioos:station:DISL:MHPA:1,2013-02-05T06:30:00Z,30.6671,-87.9365,3.498,9.2,1111122 
DISL,ioos:station:DISL:MHPA:1,2013-02-05T07:00:00Z,30.6671,-87.9365,3.397,9.19,1111122 
DISL,ioos:station:DISL:MHPA:1,2013-02-05T07:30:00Z,30.6671,-87.9365,3.31,9.19,1111122 
DISL,ioos:station:DISL:MHPA:1,2013-02-05T08:00:00Z,30.6671,-87.9365,3.244,8.97,1111122 
DISL,ioos:station:DISL:MHPA:1,2013-02-05T08:30:00Z,30.6671,-87.9365,3.181,9.21,1111122 
DISL,ioos:station:DISL:MHPA:1,2013-02-05T09:00:00Z,30.6671,-87.9365,3.143,9.28,1111122 
DISL,ioos:station:DISL:MHPA:1,2013-02-05T09:30:00Z,30.6671,-87.9365,3.098,9.19,1111122 
DISL,ioos:station:DISL:MHPA:1,2013-02-05T10:00:00Z,30.6671,-87.9365,3.026,9.11,1111122 
DISL,ioos:station:DISL:MHPA:1,2013-02-05T10:30:00Z,30.6671,-87.9365,2.977,9.15,1111122 
DISL,ioos:station:DISL:MHPA:1,2013-02-05T11:00:00Z,30.6671,-87.9365,2.901,9.24,1111122 
DISL,ioos:station:DISL:MHPA:1,2013-02-05T11:30:00Z,30.6671,-87.9365,2.832,9.22,1111122 
DISL,ioos:station:DISL:MHPA:1,2013-02-05T12:00:00Z,30.6671,-87.9365,2.768,9.08,1111122 
DISL,ioos:station:DISL:MHPA:1,2013-02-05T12:30:00Z,30.6671,-87.9365,2.706,9.29,1111122 
DISL,ioos:station:DISL:MHPA:1,2013-02-05T13:00:00Z,30.6671,-87.9365,2.707,9.25,1111122 
DISL,ioos:station:DISL:MHPA:1,2013-02-05T13:30:00Z,30.6671,-87.9365,2.746,9.22,1111122 
DISL,ioos:station:DISL:MHPA:1,2013-02-05T14:00:00Z,30.6671,-87.9365,2.809,9.13,1111122 
DISL,ioos:station:DISL:MHPA:1,2013-02-05T14:30:00Z,30.6671,-87.9365,2.856,8.95,1111122 
DISL,ioos:station:DISL:MHPA:1,2013-02-05T15:00:00Z,30.6671,-87.9365,2.88,9.0,1111122 
DISL,ioos:station:DISL:MHPA:1,2013-02-05T15:30:00Z,30.6671,-87.9365,3.015,8.93,1111122 
DISL,ioos:station:DISL:MHPA:1,2013-02-05T16:00:00Z,30.6671,-87.9365,3.236,9.19,1111122 
DISL,ioos:station:DISL:MHPA:1,2013-02-05T16:30:00Z,30.6671,-87.9365,3.348,9.17,1111122 
DISL,ioos:station:DISL:MHPA:1,2013-02-05T17:00:00Z,30.6671,-87.9365,3.585,9.12,1111122 
DISL,ioos:station:DISL:MHPA:1,2013-02-05T17:30:00Z,30.6671,-87.9365,3.772,9.25,1111122 
DISL,ioos:station:DISL:MHPA:1,2013-02-05T18:00:00Z,30.6671,-87.9365,3.872,9.3,1111122 
DISL,ioos:station:DISL:MHPA:1,2013-02-05T18:30:00Z,30.6671,-87.9365,3.914,9.28,1111122 
DISL,ioos:station:DISL:MHPA:1,2013-02-05T19:00:00Z,30.6671,-87.9365,4.046,9.25,1111122 
DISL,ioos:station:DISL:MHPA:1,2013-02-05T19:30:00Z,30.6671,-87.9365,4.085,9.2,1111122 
DISL,ioos:station:DISL:MHPA:1,2013-02-05T20:00:00Z,30.6671,-87.9365,4.132,9.22,1111122 
DISL,ioos:station:DISL:MHPA:1,2013-02-05T20:30:00Z,30.6671,-87.9365,4.269,9.19,1111122 
DISL,ioos:station:DISL:MHPA:1,2013-02-05T21:00:00Z,30.6671,-87.9365,4.365,9.19,1111122 
DISL,ioos:station:DISL:MHPA:1,2013-02-05T21:30:00Z,30.6671,-87.9365,4.453,9.16,1111122 
DISL,ioos:station:DISL:MHPA:1,2013-02-05T22:00:00Z,30.6671,-87.9365,4.577,9.18,1111122 
DISL,ioos:station:DISL:MHPA:1,2013-02-05T22:30:00Z,30.6671,-87.9365,4.708,9.37,1111122 
DISL,ioos:station:DISL:MHPA:1,2013-02-05T23:00:00Z,30.6671,-87.9365,4.758,9.17,1111122 
DISL,ioos:station:DISL:MHPA:1,2013-02-05T23:30:00Z,30.6671,-87.9365,4.817,8.9,1111122 
DISL,ioos:station:DISL:MHPA:1,2013-02-06T00:00:00Z,30.6671,-87.9365,4.864,9.11,1111122 
DISL,ioos:station:DISL:MHPA:1,2013-02-06T00:30:00Z,30.6671,-87.9365,4.871,8.95,1111122 
DISL,ioos:station:DISL:MHPA:1,2013-02-06T01:00:00Z,30.6671,-87.9365,4.874,8.91,1111122 
DISL,ioos:station:DISL:MHPA:1,2013-02-06T01:30:00Z,30.6671,-87.9365,4.838,9.01,1111122 
DISL,ioos:station:DISL:MHPA:1,2013-02-06T02:00:00Z,30.6671,-87.9365,4.809,9.03,1111122 
DISL,ioos:station:DISL:MHPA:1,2013-02-06T02:30:00Z,30.6671,-87.9365,4.769,9.03,1111122 
DISL,ioos:station:DISL:MHPA:1,2013-02-06T03:00:00Z,30.6671,-87.9365,4.689,8.98,1111122 
DISL,ioos:station:DISL:MHPA:1,2013-02-06T03:30:00Z,30.6671,-87.9365,4.636,8.86,1111122 
DISL,ioos:station:DISL:MHPA:1,2013-02-06T04:00:00Z,30.6671,-87.9365,4.543,8.88,1111122 
DISL,ioos:station:DISL:MHPA:1,2013-02-06T04:30:00Z,30.6671,-87.9365,4.434,8.83,1111122 
DISL,ioos:station:DISL:MHPA:1,2013-02-06T05:00:00Z,30.6671,-87.9365,4.33,8.73,1111122 
DISL,ioos:station:DISL:MHPA:1,2013-02-06T05:30:00Z,30.6671,-87.9365,4.198,8.72,1111122 
DISL,ioos:station:DISL:MHPA:1,2013-02-06T06:00:00Z,30.6671,-87.9365,4.064,8.7,1111122 
DISL,ioos:station:DISL:MHPA:1,2013-02-06T06:30:00Z,30.6671,-87.9365,3.962,8.85,1111122 
DISL,ioos:station:DISL:MHPA:1,2013-02-06T07:00:00Z,30.6671,-87.9365,3.827,8.69,1111122 
DISL,ioos:station:DISL:MHPA:1,2013-02-06T07:30:00Z,30.6671,-87.9365,3.699,8.91,1111122 
DISL,ioos:station:DISL:MHPA:1,2013-02-06T08:00:00Z,30.6671,-87.9365,3.599,8.75,1111122 
DISL,ioos:station:DISL:MHPA:1,2013-02-06T08:30:00Z,30.6671,-87.9365,3.502,8.77,1111122 
DISL,ioos:station:DISL:MHPA:1,2013-02-06T09:00:00Z,30.6671,-87.9365,3.412,8.66,1111122 
DISL,ioos:station:DISL:MHPA:1,2013-02-06T09:30:00Z,30.6671,-87.9365,3.327,8.48,1111122 
DISL,ioos:station:DISL:MHPA:1,2013-02-06T10:00:00Z,30.6671,-87.9365,3.259,8.35,1111122 
DISL,ioos:station:DISL:MHPA:1,2013-02-06T10:30:00Z,30.6671,-87.9365,3.188,8.43,1111122 
DISL,ioos:station:DISL:MHPA:1,2013-02-06T11:00:00Z,30.6671,-87.9365,3.138,8.27,1111122 
DISL,ioos:station:DISL:MHPA:1,2013-02-06T11:30:00Z,30.6671,-87.9365,3.095,8.49,1111122 
DISL,ioos:station:DISL:MHPA:1,2013-02-06T12:00:00Z,30.6671,-87.9365,3.049,8.75,1111122 
DISL,ioos:station:DISL:MHPA:1,2013-02-06T12:30:00Z,30.6671,-87.9365,3.003,8.71,1111122 
DISL,ioos:station:DISL:MHPA:1,2013-02-06T13:00:00Z,30.6671,-87.9365,2.969,8.51,1111122 
DISL,ioos:station:DISL:MHPA:1,2013-02-06T13:30:00Z,30.6671,-87.9365,2.922,8.7,1111122 
DISL,ioos:station:DISL:MHPA:1,2013-02-06T14:00:00Z,30.6671,-87.9365,2.87,8.47,1111122 
DISL,ioos:station:DISL:MHPA:1,2013-02-06T14:30:00Z,30.6671,-87.9365,2.886,8.7,1111122 
DISL,ioos:station:DISL:MHPA:1,2013-02-06T15:00:00Z,30.6671,-87.9365,2.967,8.65,1111122 
DISL,ioos:station:DISL:MHPA:1,2013-02-06T15:30:00Z,30.6671,-87.9365,3.024,8.59,1111122 